Regional Weather Roundup
Issued by NWS

Home | Current Version | Previous Version | Text Only | Print | Product List | Glossary On
Versions: 1 2 3 4 5 6 7 8 9 10 11 12 13 14 15 16 17 18 19 20 21 22 23 24 25 26 27 28 29 30 31 32 33 34 35 36 37 38 39 40 41 42 43 44 45 46 47 48 49 50
000
ASUS43 KMKX 281121
RWRWI

WISCONSIN REGIONAL WEATHER ROUNDUP
NATIONAL WEATHER SERVICE MILWAUKEE/SULLIVAN WI
500 AM CST SUN DEC 28 2014

NOTE: "FAIR" INDICATES FEW OR NO CLOUDS BELOW 12,000 FEET WITH NO
SIGNIFICANT WEATHER AND/OR OBSTRUCTIONS TO VISIBILITY.

WIZ001-002-006>008-014>016-023>028-281200-
NORTHWEST WISCONSIN

CITY           SKY/WX    TMP DP  RH WIND       PRES   REMARKS
SUPERIOR ARPT  CLOUDY    21  16  80 NW5       30.05S WCI  14
ASHLAND        CLOUDY    17  12  80 SW8       30.04R WCI   7
HAYWARD        LGT SNOW  15  12  88 SW5       30.03S FOG     WCI   8
SIREN          CLOUDY    15  11  84 SW7       30.06S WCI   5
CUMBERLAND     CLOUDY    12  10  92 SW5       30.04S WCI   4
RICE LAKE      CLOUDY    13  10  85 CALM      30.07S
CHETEK         CLOUDY    12   9  87 MISG      30.07S
LADYSMITH      PTCLDY     8   5  89 S3        30.06S
EAU CLAIRE     CLOUDY    11   7  84 SW6       30.09S WCI   1
MENOMONIE      MOCLDY    10   7  87 SE3       30.09F
NEW RICHMOND   CLEAR     10   7  88 S5        30.08S WCI   2
OSCEOLA        CLOUDY    10  10 100 SE5       30.11S WCI   2
$$

WIZ003>005-009-010-017-018-281200-
NORTH CENTRAL WISCONSIN

CITY           SKY/WX    TMP DP  RH WIND       PRES   REMARKS
MANITOWISH WTR FLURRIES  11   9  92 W7        29.97R WCI   1
ARBOR VITAE    CLOUDY    14  11  87 W5        29.98R WCI   6
WOODRUFF       CLOUDY    14  11  87 W5        29.98R WCI   6
RHINELANDER    CLOUDY     9   6  88 W6        29.99R WCI  -1
EAGLE RIVER    CLOUDY    11   7  85 CALM      29.96S
LAND O LAKES   CLOUDY    13  10  88 W7        29.96R WCI   3
PHILLIPS       CLOUDY    10   7  90 SW5       30.01R WCI   1
TOMAHAWK       CLOUDY    10   7  89 CALM      30.02R
MEDFORD        CLOUDY     9   7  92 W8        30.03R WCI  -4
MERRILL        CLOUDY     8   5  89 W3        30.03R
$$

WIZ029-030-035-036-043>047-281200-
CENTRAL WISCONSIN

CITY           SKY/WX    TMP DP  RH WIND       PRES   REMARKS
WAUSAU         PTCLDY    10   6  84 NW5       30.04R WCI   2
MOSINEE        CLEAR     10   9  92 W7        30.06R WCI   0
MARSHFIELD     PTCLDY     9   5  84 W7        30.06R WCI  -2
STEVENS POINT  CLEAR     12   8  83 W6        30.07R WCI   3
WAUPACA        CLEAR     18  13  80 W6        30.09R WCI  10
WAUTOMA        CLEAR     16  12  84 W7        30.10R WCI   6
WISC RAPIDS    CLEAR     14   8  77 W5        30.09S WCI   6
CAMP DOUGLAS   CLEAR     12  12  99 CALM      30.10S
$$

WIZ011>013-019>022-031-037>040-048>050-281200-
NORTHEAST WISCONSIN

CITY           SKY/WX    TMP DP  RH WIND       PRES   REMARKS
ANTIGO         CLEAR      5   3  92 W6        30.01R WCI  -6
SHAWANO        CLEAR     18  13  80 W6        30.07R WCI  10
OCONTO         CLEAR     19  15  85 W8        30.05S WCI   9
STURGEON BAY   CLEAR     21  14  73 W10       30.06R WCI  10
GREEN BAY      CLEAR     22  17  81 W7        30.07R WCI  13
MANITOWOC      CLEAR     23  20  88 W12       30.07S WCI  12
APPLETON       NOT AVBL
CLINTONVILLE   CLEAR     18  12  79 W8        30.07R WCI   7
OSHKOSH        CLEAR     20  14  77 W7        30.08S WCI  11
$$

WIZ032>034-041-042-053>061-281200-
SOUTHWEST WISCONSIN

CITY           SKY/WX    TMP DP  RH WIND       PRES   REMARKS
LA CROSSE      CLEAR     13   8  81 S7        30.14S WCI   3
SPARTA         CLEAR     12   9  89 CALM      30.12S
VIROQUA        CLEAR     14  14  99 SW6       30.09R WCI   5
BOSCOBEL       CLEAR     16  12  84 SW6       30.16R WCI   7
PRAIRIE DU CHI CLEAR     17  12  80 CALM      30.16S
PLATTEVILLE    CLEAR     16  14  89 CALM      30.14S
$$

WIZ056-057-062-063-064-067-068-281200-
SOUTH CENTRAL WISCONSIN

CITY           SKY/WX    TMP DP  RH WIND       PRES   REMARKS
REEDSBURG      CLEAR     16  11  79 W7        30.11S WCI   6
BARABOO/DELLS  CLEAR     17  11  80 W8        30.09F WCI   6
LONE ROCK      CLEAR     20  12  71 W7        30.15R WCI  11
MINERAL POINT  CLEAR     19  14  79 W5        30.12R WCI  13
MADISON        CLEAR     19  13  77 CALM      30.12R
MIDDLETON      CLEAR     19  13  77 W3        30.13R
WATERTOWN      CLEAR     20  16  82 W5        30.11S WCI  14
MONROE         CLEAR     19  16  86 W6        30.12R WCI  11
JANESVILLE     CLEAR     21  18  86 W5        30.13R WCI  15
$$

WIZ051-052-058>065-066-070>072-281200-
SOUTHEAST WISCONSIN

CITY           SKY/WX    TMP DP  RH WIND       PRES   REMARKS
MILWAUKEE      PTCLDY    25  18  74 W8        30.11R WCI  16
WAUKESHA       CLEAR     21  19  93 W9        30.10S WCI  11
MILWAUKEE/TIMM CLEAR     23  19  86 W8        30.11R WCI  14
RACINE         CLEAR     25  19  78 W6        30.13R WCI  18
BURLINGTON     CLEAR     21  18  89 W5        30.12R WCI  15
KENOSHA        CLEAR     24  20  84 W8        30.11R WCI  15
FOND DU LAC    CLEAR     21  15  78 SW8       30.09S WCI  11
SHEBOYGAN      CLEAR     22  17  81 W10       30.08R WCI  11
WEST BEND      CLEAR     23  18  80 W10       30.08S WCI  12
JUNEAU         FAIR      20  16  84 SW7       30.11R WCI  11
$$

LSZ147-162-281200-
LAKE SUPERIOR

STATION/POSITION TIME  TEMP    WIND        PRES    WAVE
                       AIR SEA DIR/SP/G            HT/PER
                 (UTC) (F)     (DEG/KT/KT) (MB)    (FT/S)
DEVILS ISLAND    1100   21     300/ 16/ 19 1017.9R
PORT WING        1000   23     280/ 14/ 18 1017.3
SAXON HARBOR     1000   19     210/  6/ 11 1016.9S
$$

LMZ867-665-643>646-281200-
LAKE MICHIGAN

STATION/POSITION TIME  TEMP    WIND        PRES    WAVE
                       AIR SEA DIR/SP/G            HT/PER
                 (UTC) (F)     (DEG/KT/KT) (MB)    (FT/S)
CHAMBERS ISLAND  1000   22     220/  7/ 11 1016.9F
NORTHPORT PIER   1102   23     270/  5/ 12 1016.9R
SISTER BAY       1013          290/ 12/ 15   N/A
ALGOMA LAKESHORE 1015          290/  8/ 12   N/A
KEWAUNEE LAKESHO 1000   23     280/  8/ 12 1017.0F
SHEBOYGAN LAKESH 1100   24 37  270/ 11/ 13 1019.7R
PORT WASHINGTON  1000   25     280/  3/  8 1019.6S
MILWAUKEE LAKESH 1100   26     280/  9/ 12   N/A
KENOSHA   LAKESH 1100   26     270/  9/ 13 1020.0R
$$

TC  - TEMPERATURE IN CELSIUS
VSB - VISIBILITY IN STATUTE MILES
WCI - WIND CHILL INDEX
HX  - HEAT INDEX




USA.gov is the U.S. government's official web portal to all federal, state and local government web resources and services.